Guam Agana, GU

12:58 PM ChST on October 24, 2019 (GMT +1000)
Guam International

Weather History for PGUM - August, 2019

Change the Weather History Date:

Thursday, August 15, 2019

  Actual Average Record
Temperature  
Mean Temperature 77 °F -  
Max Temperature 79 °F 84 °F 89 °F (2013)
Min Temperature 75 °F 75 °F 75 °F (2001)
Cooling Degree Days 12    
Growing Degree Days 27 (Base 50)    
Moisture  
Dew Point 74 °F    
Average Humidity 90    
Maximum Humidity 94    
Minimum Humidity 84    
Precipitation  
Precipitation 0.16 in - - ()
Sea Level Pressure  
Sea Level Pressure 29.90 in    
Wind  
Wind Speed 9 mph (East)    
Max Wind Speed 17 mph    
Max Gust Speed -    
Visibility 8 miles    
Events Rain    
Averages and records for this station are not official NWS values.
T = Trace of Precipitation, MM = Missing Value Source: NWS Daily Summary

Daily Weather History Graph

Daily Weather History Graph

Search for Another Location

Airport or City:

Astronomy

Aug. 15, 2019 Rise Set
Actual Time 6:07 AM ChST 6:42 PM ChST
Civil Twilight 5:45 AM ChST 7:04 PM ChST
Nautical Twilight 5:20 AM ChST 7:30 PM ChST
Astronomical Twilight 4:53 AM ChST 7:56 PM ChST
Moon 6:40 PM ChST (8/15) 5:38 AM ChST (8/15)
Length of Visible Light 13h 18m
Length of Day
12h 34m
Full, 100% of the Moon is Illuminated
Aug 15
Full
Aug 15
Full
Aug 24
Last Quarter
Aug 30
New
Sep 6
First Quarter

Hourly Weather History & Observations

Time (ChST) Temp. Dew Point Humidity Pressure Visibility Wind Dir Wind Speed Gust Speed Precip Events Conditions
12:54 AM 79.0 °F 75.0 °F 88% 29.89 in 10.0 mi NNE 11.5 mph - N/A   Mostly Cloudy
1:21 AM 78.1 °F 75.0 °F 90% 29.90 in 10.0 mi NNE 11.5 mph - 0.00 in Rain Light Rain
1:54 AM 78.1 °F 73.9 °F 87% 29.86 in 8.0 mi NNE 6.9 mph - 0.02 in Rain Light Rain
2:54 AM 78.1 °F 75.0 °F 90% 29.87 in 10.0 mi North 6.9 mph - 0.00 in   Mostly Cloudy
3:54 AM 78.1 °F 73.9 °F 87% 29.86 in 10.0 mi NE 8.1 mph - 0.01 in Rain Light Rain
4:54 AM 75.9 °F 73.0 °F 91% 29.86 in 4.0 mi ENE 9.2 mph - 0.09 in Rain Rain
5:54 AM 77.0 °F 73.9 °F 90% 29.87 in 10.0 mi NE 6.9 mph - 0.03 in   Overcast
6:54 AM 78.1 °F 75.0 °F 90% 29.89 in 9.0 mi NE 5.8 mph - 0.01 in Rain Light Rain
7:54 AM 78.1 °F 75.0 °F 90% 29.92 in 10.0 mi East 9.2 mph - 0.00 in Rain Light Rain
8:04 AM 77.0 °F 73.9 °F 90% 29.95 in 3.0 mi East 17.3 mph - 0.01 in Rain Rain
8:07 AM 77.0 °F 73.9 °F 90% 29.95 in 2.0 mi ENE 10.4 mph - 0.03 in Rain Heavy Rain
8:15 AM 75.9 °F 73.0 °F 91% 29.95 in 2.0 mi ENE 13.8 mph - 0.08 in Rain Heavy Rain
8:22 AM 75.9 °F 73.0 °F 91% 29.95 in 2.5 mi East 8.1 mph - 0.10 in Rain Heavy Rain
8:33 AM 75.9 °F 73.0 °F 91% 29.95 in 3.0 mi East 9.2 mph - 0.14 in Rain Heavy Rain
8:40 AM 75.9 °F 73.0 °F 91% 29.95 in 2.5 mi ESE 9.2 mph - 0.17 in Rain Heavy Rain
8:50 AM 75.2 °F 73.4 °F 94% 29.95 in 2.5 mi ESE 10.4 mph - 0.21 in Rain Heavy Rain
8:54 AM 75.9 °F 73.0 °F 91% 29.93 in 3.0 mi ESE 9.2 mph - 0.23 in Rain Heavy Rain
9:24 AM 77.0 °F 73.9 °F 90% 29.94 in 4.0 mi ESE 5.8 mph - 0.07 in Rain Rain
9:38 AM 77.0 °F 73.9 °F 90% 29.94 in 5.0 mi ESE 8.1 mph - 0.10 in Rain Rain
9:45 AM 77.0 °F 73.9 °F 90% 29.94 in 7.0 mi ESE 9.2 mph - 0.10 in Rain Light Rain
9:49 AM 77.0 °F 73.4 °F 89% 29.94 in 7.0 mi ESE 11.5 mph - 0.11 in Rain Light Rain
9:52 AM 77.0 °F 73.4 °F 89% 29.94 in 7.0 mi ESE 12.7 mph - 0.11 in Rain Rain
9:54 AM 77.0 °F 73.9 °F 90% 29.92 in 6.0 mi ESE 10.4 mph - 0.11 in Rain Rain
10:01 AM 77.0 °F 73.9 °F 90% 29.95 in 5.0 mi East 11.5 mph - 0.01 in Rain Rain
10:08 AM 75.9 °F 73.0 °F 91% 29.95 in 4.0 mi East 12.7 mph - 0.03 in Rain Rain
10:54 AM 77.0 °F 73.9 °F 90% 29.93 in 9.0 mi ESE 9.2 mph - 0.09 in Rain Light Rain
11:22 AM 77.0 °F 73.9 °F 90% 29.94 in 9.0 mi East 8.1 mph - 0.01 in Rain Light Rain
11:32 AM 77.0 °F 75.0 °F 94% 29.93 in 7.0 mi East 8.1 mph - 0.01 in Rain Light Rain
11:52 AM 77.0 °F 73.4 °F 89% 29.92 in 9.0 mi East 8.1 mph - 0.02 in Rain Light Rain
11:53 AM 77.0 °F 73.9 °F 90% 29.91 in 9.0 mi East 9.2 mph - 0.02 in Rain Light Rain
12:12 PM 78.1 °F 75.0 °F 90% 29.92 in 5.0 mi ESE 9.2 mph - 0.00 in Rain Light Rain
12:35 PM 77.0 °F 73.0 °F 88% 29.91 in 9.0 mi ESE 6.9 mph - 0.01 in Rain Light Rain
12:45 PM 75.9 °F 73.0 °F 91% 29.90 in 8.0 mi SE 6.9 mph - 0.02 in Rain Light Rain
12:54 PM 75.9 °F 73.9 °F 94% 29.88 in 6.0 mi ESE 3.5 mph - 0.03 in Rain Light Rain
1:17 PM 77.0 °F 75.0 °F 94% 29.89 in 10.0 mi ESE 5.8 mph - 0.02 in Rain Light Rain
1:54 PM 78.1 °F 75.0 °F 90% 29.86 in 10.0 mi East 6.9 mph - 0.02 in   Mostly Cloudy
2:54 PM 78.1 °F 73.9 °F 87% 29.84 in 10.0 mi East 6.9 mph - N/A   Mostly Cloudy
3:54 PM 78.1 °F 73.9 °F 87% 29.82 in 10.0 mi Calm Calm - N/A   Scattered Clouds
4:54 PM 78.1 °F 73.9 °F 87% 29.81 in 10.0 mi North 5.8 mph - N/A   Scattered Clouds
5:54 PM 78.1 °F 73.9 °F 87% 29.83 in 10.0 mi North 8.1 mph - 0.00 in   Scattered Clouds
6:54 PM 78.1 °F 73.9 °F 87% 29.86 in 10.0 mi Calm Calm - 0.00 in   Clear
7:23 PM 77.0 °F 73.9 °F 90% 29.89 in 10.0 mi SSE 3.5 mph - N/A   Mostly Cloudy
7:54 PM 77.0 °F 73.9 °F 90% 29.88 in 10.0 mi SE 3.5 mph - N/A   Mostly Cloudy
8:02 PM 77.0 °F 73.9 °F 90% 29.90 in 10.0 mi SE 4.6 mph - N/A   Scattered Clouds
8:54 PM 77.0 °F 73.9 °F 90% 29.88 in 10.0 mi SW 3.5 mph - N/A   Clear
9:54 PM 77.0 °F 73.9 °F 90% 29.88 in 10.0 mi NNE 3.5 mph - N/A   Clear
10:54 PM 75.9 °F 73.9 °F 94% 29.89 in 10.0 mi WNW 3.5 mph - N/A   Clear
11:54 PM 75.9 °F 73.9 °F 94% 29.88 in 10.0 mi South 3.5 mph - N/A   Clear